This is the latest recevied weather packets stored in our database for station/object KB1FFS. If no packets are shown the sender has not sent any weather packets the latest 1 day(s).
| Time | Temp. | Humidity | Pressure | Rain* | Wind** | Luminosity | Snow |
|---|---|---|---|---|---|---|---|
| 1778027026 | 23.89° C | 62% | 1006.7 hPa | 0 mm | 0 m/s | 10 W/m² | - |
| 1778026721 | 23.89° C | 62% | 1006.9 hPa | 0 mm | 0.89 m/s, 163° | 10 W/m² | - |
| 1778026419 | 24.44° C | 61% | 1006.6 hPa | 0 mm | 0.89 m/s, 111° | 16 W/m² | - |
| 1778026116 | 24.44° C | 61% | 1006.6 hPa | 0 mm | 0.89 m/s, 326° | 21 W/m² | - |
| 1778025814 | 25° C | 60% | 1006.5 hPa | 0 mm | 0 m/s | 27 W/m² | - |
| 1778025510 | 25° C | 59% | 1006.5 hPa | 0 mm | 0 m/s | 33 W/m² | - |
| 1778025208 | 25.56° C | 59% | 1006.6 hPa | 0 mm | 0.89 m/s, 154° | 47 W/m² | - |
| 1778024904 | 25.56° C | 59% | 1006.3 hPa | 0 mm | 0.89 m/s, 74° | 61 W/m² | - |
| 1778024602 | 25.56° C | 59% | 1006.5 hPa | 0 mm | 0.45 m/s, 147° | 68 W/m² | - |
| 1778024299 | 26.11° C | 58% | 1006.3 hPa | 0 mm | 0.89 m/s, 149° | 70 W/m² | - |
| 1778023997 | 26.11° C | 56% | 1006.2 hPa | 0 mm | 0 m/s | 83 W/m² | - |
| 1778023694 | 26.67° C | 56% | 1006.1 hPa | 0 mm | 0 m/s | 57 W/m² | - |
| 1778023391 | 26.67° C | 55% | 1006.1 hPa | 0 mm | 0.45 m/s, 329° | 45 W/m² | - |
| 1778023088 | 26.67° C | 55% | 1006.4 hPa | 0 mm | 0 m/s | 50 W/m² | - |
| 1778022786 | 27.22° C | 56% | 1006.3 hPa | 0 mm | 0 m/s | 79 W/m² | - |
| 1778022484 | 27.22° C | 54% | 1005.8 hPa | 0 mm | 0.45 m/s, 240° | 69 W/m² | - |
| 1778022181 | 27.78° C | 53% | 1006.1 hPa | 0 mm | 1.34 m/s, 329° | 96 W/m² | - |
| 1778021877 | 28.33° C | 53% | 1006.1 hPa | 0 mm | 0.45 m/s, 145° | 118 W/m² | - |
| 1778021575 | 28.33° C | 52% | 1005.9 hPa | 0 mm | 0 m/s | 109 W/m² | - |
| 1778021269 | 28.89° C | 50% | 1005.6 hPa | 0 mm | 1.34 m/s, 34° | 127 W/m² | - |
| 1778020967 | 29.44° C | 51% | 1005.5 hPa | 0 mm | 0 m/s | 129 W/m² | - |
| 1778020665 | 29.44° C | 51% | 1005.5 hPa | 0 mm | 0 m/s | 183 W/m² | - |
| 1778020361 | 29.44° C | 51% | 1005.6 hPa | 0 mm | 0.89 m/s, 195° | 476 W/m² | - |
| 1778020057 | 30° C | 50% | 1005.4 hPa | 0 mm | 0 m/s | 137 W/m² | - |
| 1778019753 | 30° C | 50% | 1005.3 hPa | 0 mm | 0.45 m/s, 215° | 179 W/m² | - |
* Rain latest hour (hover to see other rain measurements)
** Current wind speed in m/s (hover to see current wind gust speed)